This is the latest recevied weather packets stored in our database for station/object KE1THD. If no packets are shown the sender has not sent any weather packets the latest 10 day(s).
| Time | Temp. | Humidity | Pressure | Rain* | Wind** | Luminosity | Snow |
|---|---|---|---|---|---|---|---|
| 1777126167 | 16.11° C | 69% | 1014 hPa | 0 mm | - | 406 W/m² | - |
| 1777125862 | 15.56° C | 69% | 1013.9 hPa | 0 mm | - | 384 W/m² | - |
| 1777125560 | 15.56° C | 70% | 1013.8 hPa | 0 mm | - | 378 W/m² | - |
| 1777125254 | 15° C | 71% | 1013.9 hPa | 0 mm | - | 363 W/m² | - |
| 1777124954 | 15° C | 72% | 1014.1 hPa | 0 mm | - | 340 W/m² | - |
| 1777124651 | 14.44° C | 71% | 1014.2 hPa | 0 mm | - | 331 W/m² | - |
| 1777124346 | 14.44° C | 73% | 1014.1 hPa | 0 mm | - | 317 W/m² | - |
| 1777124044 | 13.89° C | 74% | 1014.2 hPa | 0 mm | - | 297 W/m² | - |
| 1777123741 | 13.89° C | 74% | 1014.2 hPa | 0 mm | - | 53 W/m² | - |
| 1777123436 | 13.89° C | 74% | 1014.3 hPa | 0 mm | - | 54 W/m² | - |
| 1777123132 | 13.89° C | 75% | 1014.3 hPa | 0 mm | - | 254 W/m² | - |
| 1777122829 | 13.33° C | 76% | 1014.3 hPa | 0 mm | - | 238 W/m² | - |
| 1777122524 | 12.78° C | 78% | 1014.5 hPa | 0 mm | - | 82 W/m² | - |
| 1777122221 | 12.22° C | 79% | 1014.4 hPa | 0 mm | - | 143 W/m² | - |
| 1777121917 | 11.67° C | 81% | 1014.3 hPa | 0 mm | - | 177 W/m² | - |
| 1777121614 | 11.11° C | 83% | 1014.1 hPa | 0 mm | - | 51 W/m² | - |
| 1777121310 | 11.11° C | 84% | 1014.5 hPa | 0 mm | - | 46 W/m² | - |
| 1777121007 | 10.56° C | 84% | 1014.2 hPa | 0 mm | - | 58 W/m² | - |
| 1777120703 | 10.56° C | 84% | 1014.2 hPa | 0 mm | - | 45 W/m² | - |
| 1777120399 | 10° C | 84% | 1014.3 hPa | 0 mm | - | 43 W/m² | - |
| 1777120095 | 10° C | 85% | 1014.2 hPa | 0 mm | - | 41 W/m² | - |
| 1777119790 | 9.44° C | 86% | 1014.3 hPa | 0 mm | - | 35 W/m² | - |
| 1777119486 | 8.89° C | 87% | 1014.1 hPa | 0 mm | - | 35 W/m² | - |
| 1777119182 | 8.89° C | 87% | 1014.1 hPa | 0 mm | - | 33 W/m² | - |
| 1777118877 | 8.33° C | 88% | 1013.8 hPa | 0 mm | - | 31 W/m² | - |
* Rain latest hour (hover to see other rain measurements)
** Current wind speed in m/s (hover to see current wind gust speed)